Simultaneous Nadir Overpasses (SNOs) Predictions

Prediction of SNOs between TERRA and METOP-C Satellite Orbit:

Table of predicted SNOs for the next 14.0 days since TLE Epoch: 1/20/2024
Index Date (TERRA) Time (TERRA) Lat,Lon (TERRA) SZA (TERRA ) Date (METOP-C) Time (METOP-C) Lat,Lon (METOP-C) SZA (METOP-C ) Distance(km) Time Diff (sec)
1 01/22/2024 07:54:32 79.92, 82.69 100.12 01/22/2024 07:54:28 79.92, 82.74 100.13 1.08 4
2 01/22/2024 08:43:50 -80.06,-108.52 79.69 01/22/2024 08:45:04 -80.05,-108.62 79.69 2.13 74
3 01/24/2024 22:25:57 79.73,-136.60 99.24 01/24/2024 22:24:51 79.72,-136.74 99.22 2.97 66
4 01/24/2024 23:15:14 -79.92, 32.49 80.51 01/24/2024 23:15:25 -79.92, 32.49 80.50 0.44 11
5 01/27/2024 13:46:36 -79.78, 173.60 81.35 01/27/2024 13:45:45 -79.78, 173.57 81.37 0.54 51
6 01/27/2024 14:35:52 79.96, -17.41 98.88 01/27/2024 14:36:20 79.96, -17.41 98.88 0.34 28
7 01/30/2024 05:07:14 79.83, 123.73 98.00 01/30/2024 05:06:40 79.83, 123.83 98.01 2.14 34
8 01/30/2024 05:56:33 -79.95, -67.65 81.84 01/30/2024 05:57:17 -79.95, -67.70 81.83 1.04 44
9 02/01/2024 20:27:55 -79.80, 73.33 82.78 02/01/2024 20:27:38 -79.79, 73.25 82.79 1.79 17



Historial Predications of SNOs between TERRA and METOP-C
